Location: Kaiser
(34.0939°N, 117.4889°W)
Time: 22:01:53
(UTC+00:00)

Cosmos 2026 Rocket - Pass Details

Date: 29 October 2020
Orbit: 939 x 1002 km, 82.9° (Epoch: 25 November)

Event Time Altitude Azimuth Distance (km) Brightness Sun altitude
Rises 12:56:56 0° 197° (SSW) 3,700 6.9 -15.1°
Reaches altitude 10° 12:59:30 10° 201° (SSW) 2,758 6.2 -14.6°
Maximum altitude 13:05:43 56° 279° (W) 1,178 4.1 -13.3°
Drops below altitude 10° 13:11:59 10° 357° (N) 2,775 6.3 -12.1°
Sets 13:14:35 0° 1° (N) 3,724 7.0 -11.5°
